Theta_e
321 323 324 325 327 327 325 324 324 324 324 323 323 322 320 318 317 316 315 314 313 312 312 312 312 312 312 312 312 312 312 311 311 311 311 311 310 309 308 307 305 303
321 323 326 327 328 326 325 325 325 324 324 324 323 320 317 316 315 314 313 312 312 312 312 312 312 312 312 312 312 311 311 311 311 310 309 308 307 305 304 303 302 300
321 323 326 327 326 325 325 325 324 324 324 323 320 317 316 314 313 313 312 312 312 312 312 312 312 312 312 311 311 311 310 310 308 307 305 304 303 302 301 300 299 298
319 322 324 325 325 324 325 324 324 323 322 319 317 315 314 312 312 312 312 312 312 312 312 312 312 311 311 311 310 309 308 306 305 304 303 302 301 300 299 298 297 297
318 320 322 323 323 323 323 323 322 320 318 316 315 314 312 312 312 312 312 312 312 312 312 311 311 310 309 308 307 305 304 304 303 302 302 301 299 298 297 297 296 296
319 321 322 322 322 321 321 320 319 317 316 315 313 312 312 312 312 312 312 312 312 312 311 311 310 308 307 305 304 303 303 303 302 301 301 299 298 297 296 296 295 295
319 320 320 320 320 319 318 317 316 315 314 313 312 312 312 312 312 312 312 312 311 311 310 309 307 306 304 304 303 303 303 302 301 300 299 298 297 296 296 295 295 295
316 316 316 316 316 315 315 315 315 314 313 312 312 312 312 312 312 312 311 311 311 310 308 306 305 304 304 303 303 303 302 301 299 298 298 297 296 296 295 295 295 295
312 313 313 313 313 313 314 314 314 313 312 312 312 312 312 312 311 311 311 310 309 307 305 304 304 303 303 303 302 301 300 299 298 297 297 296 296 295 295 295 295 295
311 311 312 313 313 314 314 313 312 312 312 312 312 311 311 311 311 310 309 308 306 305 304 304 303 303 303 302 300 299 298 298 297 297 296 296 296 295 295 295 295 295
311 312 313 314 314 314 313 312 312 312 312 311 311 311 311 311 310 308 306 305 304 303 303 303 302 302 301 299 298 298 297 297 297 296 296 296 295 295 295 295 294 294
313 313 314 314 313 313 312 312 312 312 311 311 311 310 310 309 308 306 304 303 303 303 302 302 301 300 299 298 297 297 297 297 296 296 296 295 295 295 294 294 293 293
314 313 313 313 312 312 312 312 312 311 311 311 310 310 309 308 306 305 304 303 302 302 302 301 300 299 298 297 297 297 297 296 296 295 295 295 295 294 293 293 293 292
313 312 312 312 312 312 312 312 311 311 310 310 309 308 307 306 305 304 304 303 302 302 301 300 299 298 297 297 297 296 296 296 295 295 295 294 294 293 293 292 292 292
312 312 312 312 312 312 312 311 311 310 310 309 308 306 304 304 303 303 303 303 302 301 300 299 298 297 297 297 296 296 296 295 295 295 294 294 293 292 292 292 292 292
312 312 312 312 312 311 311 311 310 310 309 307 305 304 303 303 303 302 302 301 301 300 299 298 297 297 296 297 296 296 295 295 295 294 294 293 292 292 292 292 292 292
312 312 312 312 311 311 310 310 310 309 307 305 304 303 302 302 302 302 301 300 300 299 298 297 297 296 296 296 296 295 295 294 294 294 293 292 292 292 292 292 292 292
312 312 312 311 311 311 310 309 309 307 306 304 303 302 302 301 301 301 300 299 298 298 297 297 296 296 296 296 295 295 294 294 293 293 292 292 292 292 292 292 292 291
312 312 312 311 311 310 310 309 307 306 304 303 302 302 301 301 300 300 299 298 297 297 296 296 296 296 296 295 295 294 294 293 293 292 292 292 292 292 291 291 291 291
312 312 311 311 310 310 309 307 306 304 303 302 301 301 300 300 299 299 298 297 296 296 296 296 296 295 295 295 294 294 293 293 292 292 291 291 291 291 291 291 291 290
312 311 311 310 310 309 307 305 304 302 301 300 300 300 299 299 299 298 297 296 296 296 296 295 295 295 294 294 294 293 293 292 291 291 291 291 291 291 290 290 290 289
311 311 310 310 309 307 305 303 302 301 300 299 299 299 298 298 297 296 296 296 295 295 295 295 295 294 294 294 293 293 292 292 291 291 291 291 291 290 290 289 289 289
311 310 310 309 307 306 304 302 301 300 299 299 299 298 298 297 296 296 295 295 295 294 294 294 294 294 293 293 293 292 292 291 291 291 291 291 290 290 289 289 288 288
310 310 309 308 306 304 303 301 300 299 299 299 298 298 297 296 296 295 294 294 294 294 294 294 293 293 293 293 292 292 291 291 291 291 291 290 290 289 289 289 288 288
309 309 308 306 304 303 301 300 299 298 298 298 297 296 296 295 295 294 294 294 294 294 294 293 293 293 292 292 292 292 291 291 290 290 290 290 290 289 289 288 288 287
309 308 306 304 302 301 299 298 298 298 297 297 296 295 294 294 294 294 294 294 294 293 293 292 292 292 292 292 292 292 291 290 290 290 290 290 289 289 289 288 288 287
Wind_Speed
36 35 34 33 31 30 28 27 26 24 23 23 22 21 20 20 19 18 16 14 13 12 11 11 9 8 8 7 6 5 5 4 3 2 1 0 1 1 2 3 4 5
36 35 33 32 31 29 28 26 25 24 24 24 23 22 20 20 19 18 16 15 13 13 11 9 8 7 6 6 5 5 4 4 3 2 1 0 1 2 3 4 6 7
36 35 33 32 31 29 28 27 26 26 25 25 23 21 20 20 19 18 17 16 14 13 11 9 8 8 7 6 6 5 4 4 3 2 1 0 2 3 5 6 7 8
35 34 33 31 30 29 29 28 28 27 26 24 22 21 21 20 19 18 18 16 15 13 12 11 10 9 9 8 7 6 4 3 3 1 0 2 3 5 6 7 8 8
33 33 32 31 30 30 29 29 28 27 25 23 22 23 22 21 20 19 18 16 15 14 13 12 11 10 10 9 7 6 5 4 2 1 2 4 5 6 7 7 8 8
31 31 30 30 30 30 29 29 27 26 24 24 24 24 23 22 21 19 17 16 14 13 13 12 11 11 10 9 7 6 4 3 2 3 4 5 5 6 7 8 9 10
29 29 29 30 30 29 29 28 26 25 25 26 25 24 24 22 21 18 16 15 14 14 13 13 12 11 10 8 6 5 4 3 4 4 5 5 6 6 7 8 10 11
29 29 29 30 29 29 28 27 26 27 27 27 26 25 24 21 18 17 16 15 15 15 14 14 12 10 9 7 6 5 5 4 5 5 6 6 6 7 8 9 12 13
29 29 29 28 28 27 27 27 28 28 28 27 26 24 22 20 18 17 17 16 16 15 14 13 12 10 9 8 7 6 6 5 5 5 6 7 7 9 10 11 13 15
27 27 27 27 27 27 28 29 29 29 28 27 25 23 20 20 19 18 18 17 16 15 14 13 12 11 10 8 8 7 6 6 6 6 7 8 9 10 11 13 14 15
26 27 27 27 28 29 29 30 29 29 28 26 23 22 21 21 20 19 18 17 16 15 14 13 12 10 9 8 8 7 6 7 7 7 8 9 10 11 12 13 14 15
27 28 28 28 30 30 29 29 29 28 26 24 23 23 22 21 21 21 20 18 17 16 14 13 11 10 9 8 7 7 7 7 8 8 9 10 11 12 13 14 14 15
28 28 29 29 30 30 29 29 28 26 25 24 24 24 23 22 22 22 21 19 18 16 14 13 11 10 9 8 8 8 8 8 9 9 10 10 12 13 13 14 15 16
29 29 29 30 29 29 29 28 27 26 25 25 25 25 24 23 23 22 21 19 18 16 15 13 12 11 9 9 9 9 9 9 9 10 11 12 12 13 13 14 16 17
30 30 30 30 30 29 29 28 27 27 27 27 27 26 25 24 23 21 20 19 18 17 15 14 12 11 10 10 10 10 10 10 10 11 12 12 13 13 14 15 16 17
30 30 30 30 30 30 29 28 29 29 29 29 28 27 26 25 23 22 20 19 18 17 16 14 12 11 10 10 10 10 11 11 12 13 13 13 13 14 15 16 16 17
29 30 30 30 30 29 29 29 30 30 30 30 29 28 27 25 24 23 21 20 19 17 16 14 12 12 11 11 11 11 11 12 13 14 14 14 15 15 16 16 16 18
29 30 30 30 30 30 31 31 31 32 31 31 30 29 27 26 24 23 22 21 19 18 15 14 13 12 12 12 12 12 12 13 14 14 15 16 16 17 17 17 18 19
30 31 31 31 31 31 32 33 33 33 32 31 31 29 28 27 25 24 23 21 19 17 15 14 13 12 12 12 13 13 13 14 15 15 16 17 17 17 17 18 19 20
32 33 33 33 33 34 35 35 35 34 33 32 31 30 29 28 26 25 23 21 19 17 15 14 13 13 13 13 13 13 14 15 16 17 17 18 18 18 18 19 20 22
35 35 35 35 36 36 37 37 36 35 34 33 32 30 29 27 26 24 22 20 18 17 16 15 14 14 14 14 14 14 15 16 17 18 18 19 19 19 19 19 21 22
36 36 37 37 38 39 39 38 37 36 35 34 32 31 29 27 26 24 22 20 19 17 16 15 15 14 14 14 14 15 16 17 18 19 19 19 19 19 19 20 21 23
37 38 38 39 40 40 40 39 38 37 36 34 33 31 30 28 26 24 22 21 19 18 17 16 15 14 14 14 15 16 17 18 19 20 20 20 19 19 19 20 21 23
39 39 40 41 41 42 41 40 39 38 36 34 33 31 29 28 26 25 23 21 20 18 17 16 15 14 14 15 16 17 18 19 20 21 21 21 20 20 20 20 21 22
40 41 42 42 42 42 41 40 38 37 36 34 33 31 29 28 27 25 23 22 20 18 16 16 15 14 14 15 16 18 20 20 21 22 22 22 21 20 21 21 21 22
42 42 42 43 42 41 40 39 38 37 36 34 33 31 29 28 27 25 23 21 19 18 16 15 14 14 14 16 17 20 22 22 23 23 23 23 22 21 21 21 21 21
Wind_Direction
241 242 243 244 246 248 248 247 247 247 248 248 251 253 251 246 239 235 232 229 225 226 228 228 230 233 234 232 234 234 232 234 235 239 259 326 338 344 334 326 325 320
241 241 242 243 244 245 244 243 244 244 244 246 248 246 240 234 228 222 219 218 219 220 222 223 223 223 221 216 211 206 198 191 183 181 167 87 337 330 325 320 322 322
240 241 240 241 241 240 239 238 238 239 240 242 241 235 228 222 216 211 208 210 211 211 211 211 210 206 200 195 193 190 182 174 171 163 147 335 321 317 314 312 311 312
239 239 238 238 238 236 235 235 235 236 237 236 230 221 215 210 205 202 202 202 200 198 198 197 195 191 186 185 186 186 180 176 181 181 255 303 310 310 308 309 309 311
236 235 234 233 232 231 232 233 234 235 233 226 217 209 205 202 200 197 194 193 191 189 190 188 186 183 181 182 181 183 186 190 205 238 291 301 310 313 314 314 314 314
231 230 229 229 228 228 229 230 231 229 222 214 206 201 200 198 195 191 187 187 186 186 186 184 183 182 180 182 182 187 197 217 255 281 296 303 310 313 313 313 312 315
227 227 226 227 227 227 228 226 223 216 209 204 199 197 197 194 189 185 183 185 185 184 184 182 183 184 184 186 192 206 223 247 274 286 296 302 306 307 309 311 313 317
227 227 226 227 227 225 222 216 210 205 199 198 197 195 192 187 184 183 183 184 185 184 184 184 186 189 192 198 206 223 239 255 272 283 294 299 303 307 310 314 316 318
225 225 225 224 221 216 210 204 200 198 196 196 194 191 186 182 182 184 184 184 184 185 186 188 192 195 201 208 215 229 243 255 270 280 291 298 303 308 312 314 316 316
221 220 218 215 209 203 199 196 195 195 195 194 189 185 182 182 182 183 185 185 186 189 192 194 199 204 209 215 222 233 246 256 270 280 289 298 303 307 310 312 312 313
213 211 208 204 199 196 195 194 194 195 193 189 184 182 184 184 182 182 185 187 190 195 198 201 206 211 216 224 230 238 251 261 273 284 291 298 302 305 308 309 309 310
204 202 200 198 195 193 193 194 194 192 189 184 182 184 185 184 183 185 188 191 195 199 203 207 212 217 223 229 238 247 259 270 278 286 293 297 301 304 306 307 308 311
197 196 195 194 193 193 194 195 192 189 186 183 183 186 188 188 188 190 192 195 200 203 207 212 217 223 229 234 245 256 266 276 283 288 294 297 301 304 304 307 310 313
194 194 194 194 195 196 195 193 189 186 185 184 184 187 190 192 194 197 198 199 203 208 212 217 220 225 232 239 250 262 270 277 284 288 293 298 300 302 303 307 312 313
194 194 196 197 197 196 194 191 188 186 186 186 186 188 191 195 197 200 204 206 208 212 215 219 222 225 233 243 253 264 270 277 284 287 292 296 296 299 303 307 311 312
197 198 199 199 198 195 192 190 188 188 188 188 189 191 194 197 199 202 206 210 213 216 218 219 222 227 236 247 256 265 272 279 284 287 292 293 293 297 303 306 309 311
202 202 202 200 198 195 192 191 191 191 190 191 193 194 196 199 203 206 209 212 215 218 219 221 225 231 240 251 259 267 274 279 285 289 293 293 295 299 303 307 310 312
207 206 204 202 199 196 194 194 194 193 193 195 196 198 199 202 205 209 212 215 217 218 220 222 228 236 245 254 261 268 275 280 286 290 291 292 296 301 306 309 312 315
210 208 206 204 201 198 197 196 196 197 197 198 199 200 202 204 207 210 214 216 217 218 221 225 233 241 248 256 263 269 276 282 286 288 289 292 298 304 309 312 314 316
212 210 208 206 202 200 199 198 199 199 199 200 201 202 204 207 210 212 214 216 217 219 224 229 235 243 249 257 264 271 278 283 285 287 290 296 303 308 312 314 316 317
213 210 208 206 203 201 200 200 200 200 200 201 202 204 207 209 212 213 214 215 217 220 225 230 235 243 250 258 267 275 280 283 285 289 295 301 306 309 312 315 317 317
213 211 208 206 204 202 201 201 201 201 201 202 203 205 208 210 211 213 213 215 217 220 225 230 237 245 252 262 271 278 281 284 289 294 299 303 306 308 312 315 316 316
214 212 210 207 205 204 203 202 202 202 202 204 206 207 209 210 211 211 212 215 217 221 226 232 238 246 255 266 275 279 283 287 293 297 300 302 305 307 311 315 315 316
216 213 211 209 208 206 205 204 203 203 205 207 209 210 211 210 211 212 213 215 218 222 227 233 240 248 258 269 277 282 287 291 295 297 299 300 303 306 309 313 316 318
216 213 212 210 209 208 207 206 205 205 206 208 209 210 211 211 211 211 214 217 219 224 228 234 241 251 262 272 281 287 291 293 295 297 298 299 302 305 308 313 317 320
216 214 212 211 210 209 208 207 208 208 208 209 208 208 208 210 211 211 214 218 222 225 229 235 244 255 267 278 287 291 292 294 295 296 297 298 301 304 308 314 318 322